Terminal Aerodrome Forecast
Issued by NWS Portland, OR

Home | Current Version | Previous Version | Text Only | Print | Product List | Glossary On
Versions: 1 2 3 4 5 6 7 8 9 10 11 12 13 14 15 16 17 18 19 20 21 22 23 24 25 26 27 28 29 30
000
FTUS46 KPQR 161127
TAFAST
TAF
KAST 161127Z 1612/1712 20003KT P6SM OVC020
     FM161700 19006KT P6SM BKN020
     FM162000 24006KT P6SM SCT050 SCT200
     FM170400 VRB03KT P6SM BKN020 BKN200=

USA.gov is the U.S. government's official web portal to all federal, state and local government web resources and services.